sat.trackr.live / text

‹ back to catalog

STARLINK-37104

NORAD 68231 · 2026-053AA

PAYLOAD ACTIVE UNKNOWN

§ Identity

Operator
Country
US
Launch date
2026-03-17
Launch site
AFWTR
Launch vehicle
Mass (kg)
RCS (m²)

Purposes: comms

External: N2YO · Heavens-Above · Gunter

§ Orbital elements

Epoch: 2026-05-25T02:23:58.174368Z

Period
93.90 min
Inclination
97.2853°
Eccentricity
0.0001328
Mean motion
15.33467748 rev/d
Perigee alt
464.6 km
Apogee alt
466.4 km
Semi-major
6,843.6 km
B*
8.7907e-4
RAAN
20.6340°
Arg perigee
97.2245°
Mean anomaly
262.9149°
Rev number
1,193

§ Raw data

STARLINK-371041 68231U 26053AA  26145.09997887  .00028432  00000+0  87907-3 0  99932 68231  97.2853  20.6340 0001328  97.2245 262.9149 15.33467748 11939

JSON: /api/v1/satellites/68231 · /tle

For live sub-satellite position, see the globe view (requires WebGL).

§ Visibility from observer

Set your observer location to see the next 7 days of passes ≥ 10°. The values pass through the URL so the page stays shareable.

No JS? Fill the form by hand. The geolocation button needs JavaScript.